Weather Roundup
Issued by NWS

Current Version | Previous Version | Graphics & Text | Print | Product List | Glossary On
Versions: 1 2 3 4 5 6 7 8 9 10 11 12 13 14 15 16 17 18 19 20 21 22 23 24 25 26 27 28 29 30 31 32 33 34 35 36 37 38 39 40 41 42 43 44 45 46 47 48 49 50
121
NZUS99 KDVN 132010
HRRCWA
HOURLY WEATHER ROUNDUP
NATIONAL WEATHER SERVICE QUAD CITIES IA IL
300 PM CDT TUE APR 13 2021

Note: "Fair" indicates few or no clouds below 12,000 feet with
no significant weather and/or obstructions to visibility.

* - These stations are not NWS stations and are not subject to NWS
quality control.  Some stations do not report weather such as fog
and some only report TMP and DP in whole degrees Celsius, which are
then converted to Fahrenheit.

...NORTHEAST IOWA..................................................

CITY           SKY/WX    TMP DP  RH WIND       PRES   REMARKS
DECORAH *        N/A     43  23  45 W10G21    30.05S WCI  37
DUBUQUE        CLOUDY    48  29  47 W22G31    30.06F WCI  41
INDEPENDENCE * MOSUNNY   50  25  38 W23G39    30.09S WCI  43
OELWEIN *      PTSUNNY   46  23  39 W23G30    30.08S WCI  38
WATERLOO       MOSUNNY   49  24  37 W20G33    30.09S WCI  42

...SOUTHWEST AND SOUTH CENTRAL WISCONSIN...........................

CITY           SKY/WX    TMP DP  RH WIND       PRES   REMARKS
BOSCOBEL       CLOUDY    49  25  39 W13G22    30.05F WCI  44
JANESVILLE *   NOT AVBL
LONE ROCK      CLOUDY    47  28  47 W14G23    30.04F WCI  41
MINERAL POINT* CLOUDY    46  27  46 W17G25    30.05S WCI  39
MONROE *       CLOUDY    47  27  47 W24G31    30.06S WCI  38
PRAIRIE DU CHI CLOUDY    49  22  35 W21       30.06S WCI  42

...EAST CENTRAL IOWA...............................................

CITY           SKY/WX    TMP DP  RH WIND       PRES   REMARKS
CEDAR RAPIDS   PTSUNNY   49  28  44 W17G33    30.10S WCI  43
CLINTON *      PTSUNNY   51  34  52 W22       30.10F
DAVENPORT      MOSUNNY   52  32  46 W21G33    30.13F
IOWA CITY      PTSUNNY   55  29  36 W25G33    30.12F
MARSHALLTOWN   SUNNY     50  25  37 W18G39    30.10F WCI  44
MONTICELLO *   CLOUDY    50  28  43 W21G31    30.08S WCI  43
MUSCATINE *    PTSUNNY   57  32  38 W21G26    30.13F
NEWTON *       MOSUNNY   54  27  35 W21G30    30.12F
VINTON *       SUNNY     54  26  33 W20G32    30.10S

...NORTHWEST ILLINOIS..............................................

CITY           SKY/WX    TMP DP  RH WIND       PRES   REMARKS
FREEPORT *     PTSUNNY   50  31  48 W16G24    30.10F WCI  44
MOLINE         MOSUNNY   55  32  41 W16G29    30.11F
PERU *           N/A     54  34  47 SW10G32   30.12F
ROCHELLE *     PTSUNNY   51  33  50 W20G25    30.11S
ROCKFORD       PTSUNNY   52  28  39 W17G30    30.11S
SAVANNA *      PTSUNNY   50  30  46 W15G21    30.10F WCI  45
STERLING/R.F.* PTSUNNY   52  34  50 W21G30    30.11F

...SOUTHEAST IOWA AND NORTHEAST MISSOURI...........................

CITY           SKY/WX    TMP DP  RH WIND       PRES   REMARKS
BURLINGTON     MOSUNNY   56  34  43 W14G24    30.13F
FAIRFIELD *    MOSUNNY   55  30  38 SW14G23   30.13S
FORT MADISON * MOSUNNY   57  36  44 W14       30.14F
KEOKUK *       SUNNY     57  34  41 W16       30.14F
KIRKSVILLE     SUNNY     58  31  35 W16G22    30.16F
KNOXVILLE *    SUNNY     54  27  35 W16G26    30.13F
MT PLEASANT *  MOSUNNY   59  34  38 W14G22    30.13F
OTTUMWA        MOSUNNY   56  32  40 W18G29    30.13
WASHINGTON *     N/A    N/A N/A N/A MISG        N/A

...WESTERN ILLINOIS................................................

CITY           SKY/WX    TMP DP  RH WIND       PRES   REMARKS
GALESBURG *    MOSUNNY   53  29  40 SW17      30.14F
MACOMB *       SUNNY     55  36  49 W14G23    30.17F
PEORIA         MOSUNNY   56  34  43 SW16G23   30.14F
QUINCY         SUNNY     58  31  35 W12G20    30.15F

END...




USA.gov is the U.S. government's official web portal to all federal, state and local government web resources and services.